Time,TemperatureF,DewpointF,PressureIn,WindDirection,WindDirectionDegrees,WindSpeedMPH,WindSpeedGustMPH,Humidity,HourlyPrecipIn,Conditions,Clouds,dailyrainin,SoftwareType,DateUTC
2013-07-06 00:01:00,76.7,71.8,29.71,North,0,0.0,0.0,85,0.00,,,0.00,WUHU216HW,2013-07-06 04:01:00,
2013-07-06 00:02:00,76.7,71.8,29.71,North,0,0.0,0.0,85,0.00,,,0.00,WUHU216HW,2013-07-06 04:02:00,
2013-07-06 00:07:00,76.7,71.8,29.71,North,0,0.0,0.0,85,0.00,,,0.00,WUHU216HW,2013-07-06 04:07:00,
2013-07-06 00:12:00,76.5,71.6,29.71,North,0,0.0,0.0,85,0.00,,,0.00,WUHU216HW,2013-07-06 04:12:00,
2013-07-06 00:18:00,76.3,71.8,29.71,North,0,0.0,0.0,86,0.00,,,0.00,WUHU216HW,2013-07-06 04:18:00,
2013-07-06 00:23:00,76.5,72.0,29.71,North,0,0.0,0.0,86,0.00,,,0.00,WUHU216HW,2013-07-06 04:23:00,
2013-07-06 00:28:00,76.5,72.0,29.71,North,0,0.0,0.0,86,0.00,,,0.00,WUHU216HW,2013-07-06 04:28:00,
2013-07-06 00:33:00,76.3,71.8,29.71,North,0,0.0,0.0,86,0.00,,,0.00,WUHU216HW,2013-07-06 04:33:00,
2013-07-06 00:38:00,76.3,72.2,29.71,North,0,0.0,0.0,87,0.00,,,0.00,WUHU216HW,2013-07-06 04:38:00,
2013-07-06 00:43:00,76.0,71.8,29.71,North,0,0.0,0.0,87,0.00,,,0.00,WUHU216HW,2013-07-06 04:43:00,
2013-07-06 00:48:00,76.0,72.2,29.70,North,0,0.0,0.0,88,0.00,,,0.00,WUHU216HW,2013-07-06 04:48:00,
2013-07-06 00:53:00,76.0,72.2,29.71,North,0,0.0,0.0,88,0.00,,,0.00,WUHU216HW,2013-07-06 04:53:00,
2013-07-06 00:59:00,75.6,71.8,29.71,North,0,0.0,0.0,88,0.00,,,0.00,WUHU216HW,2013-07-06 04:59:00,
2013-07-06 01:03:00,75.6,71.8,29.71,North,0,0.0,0.0,88,0.00,,,0.00,WUHU216HW,2013-07-06 05:03:00,
2013-07-06 01:09:00,75.6,71.8,29.71,North,0,0.0,0.0,88,0.00,,,0.00,WUHU216HW,2013-07-06 05:09:00,
2013-07-06 01:14:00,75.4,71.4,29.71,North,0,0.0,0.0,87,0.00,,,0.00,WUHU216HW,2013-07-06 05:14:00,
2013-07-06 01:19:00,75.4,71.6,29.71,North,0,0.0,0.0,88,0.00,,,0.00,WUHU216HW,2013-07-06 05:19:00,
2013-07-06 01:24:00,75.2,71.5,29.70,North,0,0.0,0.0,88,0.00,,,0.00,WUHU216HW,2013-07-06 05:24:00,
2013-07-06 01:29:00,75.2,71.5,29.70,North,0,0.0,0.0,88,0.00,,,0.00,WUHU216HW,2013-07-06 05:29:00,
2013-07-06 01:34:00,75.2,71.8,29.70,North,0,0.0,0.0,89,0.00,,,0.00,WUHU216HW,2013-07-06 05:34:00,
2013-07-06 01:39:00,75.2,71.8,29.70,North,0,0.0,0.0,89,0.00,,,0.00,WUHU216HW,2013-07-06 05:39:00,
2013-07-06 01:44:00,75.2,71.8,29.71,North,0,0.0,0.0,89,0.00,,,0.00,WUHU216HW,2013-07-06 05:44:00,
2013-07-06 01:49:00,75.1,71.6,29.71,North,0,0.0,0.0,89,0.00,,,0.00,WUHU216HW,2013-07-06 05:49:00,
2013-07-06 01:54:00,75.1,71.6,29.70,North,0,0.0,0.0,89,0.00,,,0.00,WUHU216HW,2013-07-06 05:54:00,
2013-07-06 02:00:00,74.9,71.5,29.70,North,0,0.0,0.0,89,0.00,,,0.00,WUHU216HW,2013-07-06 06:00:00,
2013-07-06 02:05:00,74.7,71.3,29.70,North,0,0.0,0.0,89,0.00,,,0.00,WUHU216HW,2013-07-06 06:05:00,
2013-07-06 02:10:00,74.7,71.3,29.69,North,0,0.0,0.0,89,0.00,,,0.00,WUHU216HW,2013-07-06 06:10:00,
2013-07-06 02:15:00,74.5,71.1,29.69,North,0,0.0,0.0,89,0.00,,,0.00,WUHU216HW,2013-07-06 06:15:00,
2013-07-06 02:20:00,74.5,71.1,29.69,North,0,0.0,0.0,89,0.00,,,0.00,WUHU216HW,2013-07-06 06:20:00,
2013-07-06 02:25:00,74.5,71.1,29.69,North,0,0.0,0.0,89,0.00,,,0.00,WUHU216HW,2013-07-06 06:25:00,
2013-07-06 02:30:00,74.3,70.9,29.69,North,0,0.0,0.0,89,0.00,,,0.00,WUHU216HW,2013-07-06 06:30:00,
2013-07-06 02:35:00,74.3,70.9,29.70,North,0,0.0,0.0,89,0.00,,,0.00,WUHU216HW,2013-07-06 06:35:00,
2013-07-06 02:40:00,74.3,70.9,29.70,North,0,0.0,0.0,89,0.00,,,0.00,WUHU216HW,2013-07-06 06:40:00,
2013-07-06 02:45:00,74.3,70.9,29.70,North,0,0.0,0.0,89,0.00,,,0.00,WUHU216HW,2013-07-06 06:45:00,
2013-07-06 02:50:00,74.3,70.9,29.70,North,0,0.0,0.0,89,0.00,,,0.00,WUHU216HW,2013-07-06 06:50:00,
2013-07-06 02:55:00,74.3,71.3,29.71,North,0,0.0,0.0,90,0.00,,,0.00,WUHU216HW,2013-07-06 06:55:00,
2013-07-06 03:01:00,74.5,71.5,29.71,North,0,0.0,0.0,90,0.00,,,0.00,WUHU216HW,2013-07-06 07:01:00,
2013-07-06 03:06:00,74.3,70.9,29.70,North,0,0.0,0.0,89,0.00,,,0.00,WUHU216HW,2013-07-06 07:06:00,
2013-07-06 03:11:00,74.3,70.9,29.70,North,0,0.0,0.0,89,0.00,,,0.00,WUHU216HW,2013-07-06 07:11:00,
2013-07-06 03:16:00,74.2,70.7,29.70,North,0,0.0,0.0,89,0.00,,,0.00,WUHU216HW,2013-07-06 07:16:00,
2013-07-06 03:21:00,74.0,70.6,29.70,North,0,0.0,0.0,89,0.00,,,0.00,WUHU216HW,2013-07-06 07:21:00,
2013-07-06 03:26:00,73.8,70.7,29.70,North,0,0.0,0.0,90,0.00,,,0.00,WUHU216HW,2013-07-06 07:26:00,
2013-07-06 03:31:00,73.8,70.7,29.71,North,0,0.0,0.0,90,0.00,,,0.00,WUHU216HW,2013-07-06 07:31:00,
2013-07-06 03:36:00,73.6,70.6,29.71,North,0,0.0,0.0,90,0.00,,,0.00,WUHU216HW,2013-07-06 07:36:00,
2013-07-06 03:41:00,73.6,70.6,29.70,North,0,0.0,0.0,90,0.00,,,0.00,WUHU216HW,2013-07-06 07:41:00,
2013-07-06 03:47:00,73.4,70.4,29.70,North,0,0.0,0.0,90,0.00,,,0.00,WUHU216HW,2013-07-06 07:47:00,
2013-07-06 03:52:00,73.4,70.4,29.70,North,0,0.0,0.0,90,0.00,,,0.00,WUHU216HW,2013-07-06 07:52:00,
2013-07-06 03:57:00,73.1,69.7,29.70,North,0,0.0,0.0,89,0.00,,,0.00,WUHU216HW,2013-07-06 07:57:00,
2013-07-06 04:02:00,73.1,69.7,29.70,North,0,0.0,0.0,89,0.00,,,0.00,WUHU216HW,2013-07-06 08:02:00,
2013-07-06 04:07:00,73.1,69.7,29.70,North,0,0.0,0.0,89,0.00,,,0.00,WUHU216HW,2013-07-06 08:07:00,
2013-07-06 04:12:00,73.3,70.2,29.70,North,0,0.0,0.0,90,0.00,,,0.00,WUHU216HW,2013-07-06 08:12:00,
2013-07-06 04:17:00,73.3,70.2,29.70,North,0,0.0,0.0,90,0.00,,,0.00,WUHU216HW,2013-07-06 08:17:00,
2013-07-06 04:22:00,73.3,70.2,29.70,North,0,0.0,0.0,90,0.00,,,0.00,WUHU216HW,2013-07-06 08:22:00,
2013-07-06 04:27:00,73.1,69.7,29.70,North,0,0.0,0.0,89,0.00,,,0.00,WUHU216HW,2013-07-06 08:27:00,
2013-07-06 04:32:00,72.7,69.7,29.69,North,0,0.0,0.0,90,0.00,,,0.00,WUHU216HW,2013-07-06 08:32:00,
2013-07-06 04:37:00,72.7,69.7,29.69,North,0,0.0,0.0,90,0.00,,,0.00,WUHU216HW,2013-07-06 08:37:00,
2013-07-06 04:43:00,72.5,69.5,29.70,North,0,0.0,0.0,90,0.00,,,0.00,WUHU216HW,2013-07-06 08:43:00,
2013-07-06 04:48:00,72.4,69.3,29.70,North,0,0.0,0.0,90,0.00,,,0.00,WUHU216HW,2013-07-06 08:48:00,
2013-07-06 04:53:00,72.4,69.3,29.70,North,0,0.0,0.0,90,0.00,,,0.00,WUHU216HW,2013-07-06 08:53:00,
2013-07-06 04:58:00,72.4,69.3,29.69,North,0,0.0,0.0,90,0.00,,,0.00,WUHU216HW,2013-07-06 08:58:00,
2013-07-06 05:03:00,72.2,69.1,29.70,North,0,0.0,0.0,90,0.00,,,0.00,WUHU216HW,2013-07-06 09:03:00,
2013-07-06 05:08:00,72.2,69.1,29.70,North,0,0.0,0.0,90,0.00,,,0.00,WUHU216HW,2013-07-06 09:08:00,
2013-07-06 05:13:00,72.2,69.1,29.70,North,0,0.0,0.0,90,0.00,,,0.00,WUHU216HW,2013-07-06 09:13:00,
2013-07-06 05:18:00,72.2,69.1,29.70,North,0,0.0,0.0,90,0.00,,,0.00,WUHU216HW,2013-07-06 09:18:00,
2013-07-06 05:24:00,72.4,69.3,29.71,North,0,0.0,0.0,90,0.00,,,0.00,WUHU216HW,2013-07-06 09:24:00,
2013-07-06 05:29:00,72.4,69.6,29.70,North,0,0.0,0.0,91,0.00,,,0.00,WUHU216HW,2013-07-06 09:29:00,
2013-07-06 05:34:00,72.4,69.6,29.71,North,0,0.0,0.0,91,0.00,,,0.00,WUHU216HW,2013-07-06 09:34:00,
2013-07-06 05:39:00,72.4,69.3,29.71,North,0,0.0,0.0,90,0.00,,,0.00,WUHU216HW,2013-07-06 09:39:00,
2013-07-06 05:44:00,72.4,69.3,29.71,North,0,0.0,0.0,90,0.00,,,0.00,WUHU216HW,2013-07-06 09:44:00,
2013-07-06 05:49:00,72.4,69.3,29.71,North,0,0.0,0.0,90,0.00,,,0.00,WUHU216HW,2013-07-06 09:49:00,
2013-07-06 05:54:00,72.2,69.1,29.71,North,0,0.0,0.0,90,0.00,,,0.00,WUHU216HW,2013-07-06 09:54:00,
2013-07-06 05:59:00,72.2,69.1,29.71,North,0,0.0,0.0,90,0.00,,,0.00,WUHU216HW,2013-07-06 09:59:00,
2013-07-06 06:04:00,72.0,68.9,29.71,North,0,0.0,0.0,90,0.00,,,0.00,WUHU216HW,2013-07-06 10:04:00,
2013-07-06 06:09:00,72.2,69.1,29.70,North,0,0.0,0.0,90,0.00,,,0.00,WUHU216HW,2013-07-06 10:09:00,
2013-07-06 06:15:00,72.2,69.4,29.71,North,0,0.0,0.0,91,0.00,,,0.00,WUHU216HW,2013-07-06 10:15:00,
2013-07-06 06:20:00,72.0,69.2,29.70,North,0,0.0,0.0,91,0.00,,,0.00,WUHU216HW,2013-07-06 10:20:00,
2013-07-06 06:25:00,72.2,69.4,29.71,North,0,0.0,0.0,91,0.00,,,0.00,WUHU216HW,2013-07-06 10:25:00,
2013-07-06 06:30:00,72.2,69.4,29.71,North,0,0.0,0.0,91,0.00,,,0.00,WUHU216HW,2013-07-06 10:30:00,
2013-07-06 06:35:00,72.5,69.8,29.72,North,0,0.0,0.0,91,0.00,,,0.00,WUHU216HW,2013-07-06 10:35:00,
2013-07-06 06:40:00,72.9,70.1,29.71,North,0,0.0,0.0,91,0.00,,,0.00,WUHU216HW,2013-07-06 10:40:00,
2013-07-06 06:45:00,73.1,70.3,29.71,North,0,0.0,0.0,91,0.00,,,0.00,WUHU216HW,2013-07-06 10:45:00,
2013-07-06 06:50:00,73.3,70.8,29.71,North,0,0.0,0.0,92,0.00,,,0.00,WUHU216HW,2013-07-06 10:50:00,
2013-07-06 06:55:00,73.3,70.8,29.71,North,0,0.0,0.0,92,0.00,,,0.00,WUHU216HW,2013-07-06 10:55:00,
2013-07-06 07:00:00,73.4,71.0,29.71,North,0,0.0,0.0,92,0.00,,,0.00,WUHU216HW,2013-07-06 11:00:00,
2013-07-06 07:05:00,73.6,71.2,29.71,North,0,0.0,0.0,92,0.00,,,0.00,WUHU216HW,2013-07-06 11:05:00,
2013-07-06 07:11:00,73.6,71.2,29.71,North,0,0.0,0.0,92,0.00,,,0.00,WUHU216HW,2013-07-06 11:11:00,
2013-07-06 07:16:00,73.8,71.4,29.71,North,0,0.0,0.0,92,0.00,,,0.00,WUHU216HW,2013-07-06 11:16:00,
2013-07-06 07:21:00,73.8,71.4,29.71,North,0,0.0,0.0,92,0.00,,,0.00,WUHU216HW,2013-07-06 11:21:00,
2013-07-06 07:26:00,74.0,71.2,29.70,North,0,0.0,0.0,91,0.00,,,0.00,WUHU216HW,2013-07-06 11:26:00,
2013-07-06 07:31:00,74.3,71.6,29.71,North,0,0.0,0.0,91,0.00,,,0.00,WUHU216HW,2013-07-06 11:31:00,
2013-07-06 07:36:00,74.7,71.9,29.71,North,0,0.0,0.0,91,0.00,,,0.00,WUHU216HW,2013-07-06 11:36:00,
2013-07-06 07:41:00,75.2,72.2,29.70,North,0,0.0,0.0,90,0.00,,,0.00,WUHU216HW,2013-07-06 11:41:00,
2013-07-06 07:46:00,75.2,72.2,29.71,North,0,0.0,0.0,90,0.00,,,0.00,WUHU216HW,2013-07-06 11:46:00,
2013-07-06 07:51:00,75.8,72.4,29.70,North,0,0.0,0.0,89,0.00,,,0.00,WUHU216HW,2013-07-06 11:51:00,
2013-07-06 07:56:00,76.1,72.7,29.70,North,0,0.0,0.0,89,0.00,,,0.00,WUHU216HW,2013-07-06 11:56:00,
2013-07-06 08:02:00,76.7,72.5,29.71,North,0,0.0,0.0,87,0.00,,,0.00,WUHU216HW,2013-07-06 12:02:00,
2013-07-06 08:07:00,77.0,72.5,29.71,North,0,0.0,0.0,86,0.00,,,0.00,WUHU216HW,2013-07-06 12:07:00,
2013-07-06 08:12:00,77.0,72.5,29.71,North,0,0.0,0.0,86,0.00,,,0.00,WUHU216HW,2013-07-06 12:12:00,
2013-07-06 08:17:00,77.2,72.4,29.71,North,0,0.0,0.0,85,0.00,,,0.00,WUHU216HW,2013-07-06 12:17:00,
2013-07-06 08:22:00,77.4,72.5,29.71,North,0,0.0,0.0,85,0.00,,,0.00,WUHU216HW,2013-07-06 12:22:00,
2013-07-06 08:27:00,77.4,72.2,29.71,North,0,0.0,0.0,84,0.00,,,0.00,WUHU216HW,2013-07-06 12:27:00,
2013-07-06 08:32:00,77.9,72.7,29.71,North,0,0.0,0.0,84,0.00,,,0.00,WUHU216HW,2013-07-06 12:32:00,
2013-07-06 08:37:00,77.9,72.7,29.71,North,0,0.0,0.0,84,0.00,,,0.00,WUHU216HW,2013-07-06 12:37:00,
2013-07-06 08:42:00,78.1,72.2,29.71,North,0,0.0,0.0,82,0.00,,,0.00,WUHU216HW,2013-07-06 12:42:00,
2013-07-06 08:47:00,78.7,72.4,29.71,North,0,0.0,0.0,81,0.00,,,0.00,WUHU216HW,2013-07-06 12:47:00,
2013-07-06 08:52:00,78.8,72.2,29.70,North,0,0.0,0.0,80,0.00,,,0.00,WUHU216HW,2013-07-06 12:52:00,
2013-07-06 08:57:00,79.2,72.2,29.71,North,0,0.0,0.0,79,0.00,,,0.00,WUHU216HW,2013-07-06 12:57:00,
2013-07-06 09:03:00,79.6,72.1,29.70,North,0,0.0,0.0,78,0.00,,,0.00,WUHU216HW,2013-07-06 13:03:00,
2013-07-06 09:08:00,79.7,72.3,29.70,North,0,0.0,0.0,78,0.00,,,0.00,WUHU216HW,2013-07-06 13:08:00,
2013-07-06 09:13:00,80.1,72.6,29.70,North,0,0.0,0.0,78,0.00,,,0.00,WUHU216HW,2013-07-06 13:13:00,
2013-07-06 09:18:00,80.3,72.5,29.70,North,0,0.0,0.0,77,0.00,,,0.00,WUHU216HW,2013-07-06 13:18:00,
2013-07-06 09:23:00,80.5,73.0,29.70,North,0,0.0,0.0,78,0.00,,,0.00,WUHU216HW,2013-07-06 13:23:00,
2013-07-06 09:28:00,80.6,72.4,29.69,North,0,0.0,0.0,76,0.00,,,0.00,WUHU216HW,2013-07-06 13:28:00,
2013-07-06 09:33:00,80.8,72.5,29.69,North,0,0.0,0.0,76,0.00,,,0.00,WUHU216HW,2013-07-06 13:33:00,
2013-07-06 09:38:00,81.0,72.7,29.69,North,0,0.0,0.0,76,0.00,,,0.00,WUHU216HW,2013-07-06 13:38:00,
2013-07-06 09:43:00,81.4,72.7,29.69,North,0,0.0,0.0,75,0.00,,,0.00,WUHU216HW,2013-07-06 13:43:00,
2013-07-06 09:48:00,81.7,72.2,29.69,North,0,0.0,0.0,73,0.00,,,0.00,WUHU216HW,2013-07-06 13:48:00,
2013-07-06 09:53:00,81.7,72.2,29.69,North,0,0.0,0.0,73,0.00,,,0.00,WUHU216HW,2013-07-06 13:53:00,
2013-07-06 09:59:00,82.4,71.6,29.69,North,0,0.0,0.0,70,0.00,,,0.00,WUHU216HW,2013-07-06 13:59:00,
2013-07-06 10:04:00,82.8,72.5,29.69,North,0,0.0,0.0,71,0.00,,,0.00,WUHU216HW,2013-07-06 14:04:00,
2013-07-06 10:09:00,83.7,72.5,29.69,North,0,0.0,0.0,69,0.00,,,0.00,WUHU216HW,2013-07-06 14:09:00,
2013-07-06 10:14:00,84.2,73.4,29.69,North,0,0.0,0.0,70,0.00,,,0.00,WUHU216HW,2013-07-06 14:14:00,
2013-07-06 10:19:00,85.1,73.0,29.69,North,0,0.0,0.0,67,0.00,,,0.00,WUHU216HW,2013-07-06 14:19:00,
2013-07-06 10:24:00,85.9,73.6,29.69,North,0,0.0,0.0,67,0.00,,,0.00,WUHU216HW,2013-07-06 14:24:00,
2013-07-06 10:29:00,86.4,72.3,29.69,North,0,0.0,0.0,63,0.00,,,0.00,WUHU216HW,2013-07-06 14:29:00,
2013-07-06 10:34:00,87.1,73.0,29.69,North,0,0.0,0.0,63,0.00,,,0.00,WUHU216HW,2013-07-06 14:34:00,
2013-07-06 10:39:00,87.5,72.0,29.69,North,0,0.0,0.0,60,0.00,,,0.00,WUHU216HW,2013-07-06 14:39:00,
2013-07-06 10:44:00,87.8,73.3,29.69,North,0,0.0,0.0,62,0.00,,,0.00,WUHU216HW,2013-07-06 14:44:00,
2013-07-06 10:49:00,88.2,72.7,29.70,North,0,0.0,0.0,60,0.00,,,0.00,WUHU216HW,2013-07-06 14:49:00,
2013-07-06 10:54:00,88.4,72.8,29.69,North,0,0.0,0.0,60,0.00,,,0.00,WUHU216HW,2013-07-06 14:54:00,
2013-07-06 11:00:00,88.7,73.6,29.69,North,0,0.0,0.0,61,0.00,,,0.00,WUHU216HW,2013-07-06 15:00:00,
2013-07-06 11:05:00,88.9,72.8,29.69,North,0,0.0,0.0,59,0.00,,,0.00,WUHU216HW,2013-07-06 15:05:00,
2013-07-06 11:10:00,88.6,72.5,29.69,North,0,0.0,0.0,59,0.00,,,0.00,WUHU216HW,2013-07-06 15:10:00,
2013-07-06 11:15:00,88.2,72.2,29.69,North,0,0.0,0.0,59,0.00,,,0.00,WUHU216HW,2013-07-06 15:15:00,
2013-07-06 11:20:00,88.2,72.7,29.69,North,0,0.0,0.0,60,0.00,,,0.00,WUHU216HW,2013-07-06 15:20:00,
2013-07-06 11:25:00,87.8,72.4,29.69,North,0,0.0,0.0,60,0.00,,,0.00,WUHU216HW,2013-07-06 15:25:00,
2013-07-06 11:30:00,88.2,73.2,29.69,North,0,0.0,0.0,61,0.00,,,0.00,WUHU216HW,2013-07-06 15:30:00,
2013-07-06 11:35:00,88.4,72.3,29.69,North,0,0.0,0.0,59,0.00,,,0.00,WUHU216HW,2013-07-06 15:35:00,
2013-07-06 11:40:00,88.6,73.0,29.69,North,0,0.0,0.0,60,0.00,,,0.00,WUHU216HW,2013-07-06 15:40:00,
2013-07-06 11:45:00,88.7,73.6,29.69,North,0,0.0,0.0,61,0.00,,,0.00,WUHU216HW,2013-07-06 15:45:00,
2013-07-06 11:51:00,89.1,72.5,29.69,North,0,0.0,0.0,58,0.00,,,0.00,WUHU216HW,2013-07-06 15:51:00,
2013-07-06 11:56:00,89.1,71.9,29.69,North,0,0.0,0.0,57,0.00,,,0.00,WUHU216HW,2013-07-06 15:56:00,
2013-07-06 12:01:00,89.1,72.5,29.69,North,0,0.0,0.0,58,0.00,,,0.00,WUHU216HW,2013-07-06 16:01:00,
2013-07-06 12:06:00,89.6,73.4,29.69,North,0,0.0,0.0,59,0.00,,,0.00,WUHU216HW,2013-07-06 16:06:00,
2013-07-06 12:11:00,89.8,73.1,29.69,North,0,0.0,0.0,58,0.00,,,0.00,WUHU216HW,2013-07-06 16:11:00,
2013-07-06 12:16:00,90.4,73.0,29.69,North,0,0.0,0.0,57,0.00,,,0.00,WUHU216HW,2013-07-06 16:16:00,
2013-07-06 12:21:00,90.7,73.4,29.69,North,0,0.0,0.0,57,0.00,,,0.00,WUHU216HW,2013-07-06 16:21:00,
2013-07-06 12:27:00,91.1,74.2,29.69,North,0,0.0,0.0,58,0.00,,,0.00,WUHU216HW,2013-07-06 16:27:00,
2013-07-06 12:32:00,90.7,72.8,29.69,North,0,0.0,0.0,56,0.00,,,0.00,WUHU216HW,2013-07-06 16:32:00,
2013-07-06 12:37:00,90.7,73.4,29.69,North,0,0.0,0.0,57,0.00,,,0.00,WUHU216HW,2013-07-06 16:37:00,
2013-07-06 12:42:00,90.4,73.0,29.69,North,0,0.0,0.0,57,0.00,,,0.00,WUHU216HW,2013-07-06 16:42:00,
2013-07-06 12:47:00,90.2,73.9,29.69,North,0,0.0,0.0,59,0.00,,,0.00,WUHU216HW,2013-07-06 16:47:00,
2013-07-06 12:53:00,90.4,72.5,29.69,North,0,0.0,0.0,56,0.00,,,0.00,WUHU216HW,2013-07-06 16:53:00,
2013-07-06 12:58:00,90.2,73.4,29.69,North,0,0.0,0.0,58,0.00,,,0.00,WUHU216HW,2013-07-06 16:58:00,
2013-07-06 13:03:00,90.5,73.7,29.69,North,0,0.0,0.0,58,0.00,,,0.00,WUHU216HW,2013-07-06 17:03:00,
2013-07-06 13:09:00,90.7,73.4,29.69,North,0,0.0,0.0,57,0.00,,,0.00,WUHU216HW,2013-07-06 17:09:00,
2013-07-06 13:14:00,90.4,72.5,29.69,North,0,0.0,0.0,56,0.00,,,0.00,WUHU216HW,2013-07-06 17:14:00,
2013-07-06 13:19:00,90.2,72.8,29.68,North,0,0.0,0.0,57,0.00,,,0.00,WUHU216HW,2013-07-06 17:19:00,
2013-07-06 13:24:00,90.7,73.4,29.68,North,0,0.0,0.0,57,0.00,,,0.00,WUHU216HW,2013-07-06 17:24:00,
2013-07-06 13:30:00,91.4,73.4,29.69,North,0,0.0,0.0,56,0.00,,,0.00,WUHU216HW,2013-07-06 17:30:00,
2013-07-06 13:35:00,91.1,72.5,29.68,North,0,0.0,0.0,55,0.00,,,0.00,WUHU216HW,2013-07-06 17:35:00,
2013-07-06 13:40:00,90.7,72.8,29.68,North,0,0.0,0.0,56,0.00,,,0.00,WUHU216HW,2013-07-06 17:40:00,
2013-07-06 13:46:00,90.7,72.3,29.68,North,0,0.0,0.0,55,0.00,,,0.00,WUHU216HW,2013-07-06 17:46:00,
2013-07-06 13:51:00,91.8,73.8,29.68,North,0,0.0,0.0,56,0.00,,,0.00,WUHU216HW,2013-07-06 17:51:00,
2013-07-06 13:56:00,92.3,73.2,29.68,North,0,0.0,0.0,54,0.00,,,0.00,WUHU216HW,2013-07-06 17:56:00,
2013-07-06 14:01:00,92.7,72.5,29.67,North,0,0.0,0.0,52,0.00,,,0.00,WUHU216HW,2013-07-06 18:01:00,
2013-07-06 14:06:00,92.7,71.9,29.67,North,0,0.0,0.0,51,0.00,,,0.00,WUHU216HW,2013-07-06 18:06:00,
2013-07-06 14:12:00,93.2,72.4,29.67,North,0,0.0,0.0,51,0.00,,,0.00,WUHU216HW,2013-07-06 18:12:00,
2013-07-06 14:18:00,92.7,71.9,29.67,North,0,0.0,0.0,51,0.00,,,0.00,WUHU216HW,2013-07-06 18:18:00,
2013-07-06 14:23:00,92.0,71.8,29.67,North,0,0.0,0.0,52,0.00,,,0.00,WUHU216HW,2013-07-06 18:23:00,
2013-07-06 14:28:00,91.3,71.1,29.67,North,0,0.0,0.0,52,0.00,,,0.00,WUHU216HW,2013-07-06 18:28:00,
2013-07-06 14:33:00,91.1,71.5,29.67,North,0,0.0,0.0,53,0.00,,,0.00,WUHU216HW,2013-07-06 18:33:00,
2013-07-06 14:38:00,91.1,72.0,29.67,North,0,0.0,0.0,54,0.00,,,0.00,WUHU216HW,2013-07-06 18:38:00,
2013-07-06 14:43:00,91.4,71.8,29.67,North,0,0.0,0.0,53,0.00,,,0.00,WUHU216HW,2013-07-06 18:43:00,
2013-07-06 14:48:00,91.6,71.5,29.66,North,0,0.0,0.0,52,0.00,,,0.00,WUHU216HW,2013-07-06 18:48:00,
2013-07-06 14:54:00,91.6,72.0,29.66,North,0,0.0,0.0,53,0.00,,,0.00,WUHU216HW,2013-07-06 18:54:00,
2013-07-06 14:59:00,91.8,71.1,29.67,North,0,0.0,0.0,51,0.00,,,0.00,WUHU216HW,2013-07-06 18:59:00,
2013-07-06 15:04:00,91.8,71.7,29.66,North,0,0.0,0.0,52,0.00,,,0.00,WUHU216HW,2013-07-06 19:04:00,
2013-07-06 15:10:00,91.6,70.9,29.66,North,0,0.0,0.0,51,0.00,,,0.00,WUHU216HW,2013-07-06 19:10:00,
2013-07-06 15:15:00,91.6,71.5,29.66,North,0,0.0,0.0,52,0.00,,,0.00,WUHU216HW,2013-07-06 19:15:00,
2013-07-06 15:20:00,91.4,71.8,29.66,North,0,0.0,0.0,53,0.00,,,0.00,WUHU216HW,2013-07-06 19:20:00,
2013-07-06 15:25:00,91.3,71.6,29.66,North,0,0.0,0.0,53,0.00,,,0.00,WUHU216HW,2013-07-06 19:25:00,
2013-07-06 15:31:00,91.3,70.6,29.66,North,0,0.0,0.0,51,0.00,,,0.00,WUHU216HW,2013-07-06 19:31:00,
2013-07-06 15:36:00,91.1,70.9,29.66,North,0,0.0,0.0,52,0.00,,,0.00,WUHU216HW,2013-07-06 19:36:00,
2013-07-06 15:41:00,91.3,71.1,29.66,North,0,0.0,0.0,52,0.00,,,0.00,WUHU216HW,2013-07-06 19:41:00,
2013-07-06 15:46:00,91.4,71.8,29.65,North,0,0.0,0.0,53,0.00,,,0.00,WUHU216HW,2013-07-06 19:46:00,
2013-07-06 15:51:00,91.4,71.8,29.65,North,0,0.0,0.0,53,0.00,,,0.00,WUHU216HW,2013-07-06 19:51:00,
2013-07-06 15:56:00,90.9,70.8,29.65,North,0,0.0,0.0,52,0.00,,,0.00,WUHU216HW,2013-07-06 19:56:00,
2013-07-06 16:02:00,90.4,70.8,29.65,North,0,0.0,0.0,53,0.00,,,0.00,WUHU216HW,2013-07-06 20:02:00,
2013-07-06 16:07:00,90.4,71.4,29.65,North,0,0.0,0.0,54,0.00,,,0.00,WUHU216HW,2013-07-06 20:07:00,
2013-07-06 16:12:00,90.4,71.4,29.65,North,0,0.0,0.0,54,0.00,,,0.00,WUHU216HW,2013-07-06 20:12:00,
2013-07-06 16:17:00,90.4,71.4,29.65,North,0,0.0,0.0,54,0.00,,,0.00,WUHU216HW,2013-07-06 20:17:00,
2013-07-06 16:22:00,90.0,71.7,29.65,North,0,0.0,0.0,55,0.00,,,0.00,WUHU216HW,2013-07-06 20:22:00,
2013-07-06 16:28:00,89.8,70.9,29.65,North,0,0.0,0.0,54,0.00,,,0.00,WUHU216HW,2013-07-06 20:28:00,
2013-07-06 16:33:00,89.1,70.8,29.65,North,0,0.0,0.0,55,0.00,,,0.00,WUHU216HW,2013-07-06 20:33:00,
2013-07-06 16:38:00,88.9,71.2,29.65,North,0,0.0,0.0,56,0.00,,,0.00,WUHU216HW,2013-07-06 20:38:00,
2013-07-06 16:43:00,88.6,70.8,29.64,North,0,0.0,0.0,56,0.00,,,0.00,WUHU216HW,2013-07-06 20:43:00,
2013-07-06 16:48:00,88.2,70.6,29.64,North,0,0.0,0.0,56,0.00,,,0.00,WUHU216HW,2013-07-06 20:48:00,
2013-07-06 16:53:00,87.5,70.9,29.64,North,0,0.0,0.0,58,0.00,,,0.00,WUHU216HW,2013-07-06 20:53:00,
2013-07-06 16:59:00,87.5,70.9,29.64,North,0,0.0,0.0,58,0.00,,,0.00,WUHU216HW,2013-07-06 20:59:00,
2013-07-06 17:04:00,87.1,70.6,29.64,North,0,0.0,0.0,58,0.00,,,0.00,WUHU216HW,2013-07-06 21:04:00,
2013-07-06 17:09:00,87.1,70.0,29.64,North,0,0.0,0.0,57,0.00,,,0.00,WUHU216HW,2013-07-06 21:09:00,
2013-07-06 17:15:00,86.9,70.4,29.64,North,0,0.0,0.0,58,0.00,,,0.00,WUHU216HW,2013-07-06 21:15:00,
2013-07-06 17:21:00,86.8,70.2,29.63,North,0,0.0,0.0,58,0.00,,,0.00,WUHU216HW,2013-07-06 21:21:00,
2013-07-06 17:27:00,86.8,70.2,29.63,North,0,0.0,0.0,58,0.00,,,0.00,WUHU216HW,2013-07-06 21:27:00,
2013-07-06 17:32:00,86.6,70.6,29.63,North,0,0.0,0.0,59,0.00,,,0.00,WUHU216HW,2013-07-06 21:32:00,
2013-07-06 17:37:00,86.4,70.4,29.63,North,0,0.0,0.0,59,0.00,,,0.00,WUHU216HW,2013-07-06 21:37:00,
2013-07-06 17:43:00,86.4,70.4,29.63,North,0,0.0,0.0,59,0.00,,,0.00,WUHU216HW,2013-07-06 21:43:00,
2013-07-06 17:48:00,86.4,70.4,29.63,North,0,0.0,0.0,59,0.00,,,0.00,WUHU216HW,2013-07-06 21:48:00,
2013-07-06 17:53:00,86.4,70.4,29.63,North,0,0.0,0.0,59,0.00,,,0.00,WUHU216HW,2013-07-06 21:53:00,
2013-07-06 17:59:00,86.4,70.4,29.63,North,0,0.0,0.0,59,0.00,,,0.00,WUHU216HW,2013-07-06 21:59:00,
2013-07-06 18:04:00,86.4,70.4,29.63,North,0,0.0,0.0,59,0.00,,,0.00,WUHU216HW,2013-07-06 22:04:00,
2013-07-06 18:09:00,86.6,70.6,29.63,North,0,0.0,0.0,59,0.00,,,0.00,WUHU216HW,2013-07-06 22:09:00,
2013-07-06 18:15:00,86.4,69.8,29.63,North,0,0.0,0.0,58,0.00,,,0.00,WUHU216HW,2013-07-06 22:15:00,
2013-07-06 18:20:00,86.2,70.2,29.63,North,0,0.0,0.0,59,0.00,,,0.00,WUHU216HW,2013-07-06 22:20:00,
2013-07-06 18:25:00,86.2,70.2,29.64,North,0,0.0,0.0,59,0.00,,,0.00,WUHU216HW,2013-07-06 22:25:00,
2013-07-06 18:30:00,85.7,68.7,29.63,North,0,0.0,0.0,57,0.00,,,0.00,WUHU216HW,2013-07-06 22:30:00,
2013-07-06 18:35:00,85.7,68.7,29.63,North,0,0.0,0.0,57,0.00,,,0.00,WUHU216HW,2013-07-06 22:35:00,
2013-07-06 18:40:00,85.3,68.3,29.64,North,0,0.0,0.0,57,0.00,,,0.00,WUHU216HW,2013-07-06 22:40:00,
2013-07-06 18:45:00,85.3,68.3,29.64,North,0,0.0,0.0,57,0.00,,,0.00,WUHU216HW,2013-07-06 22:45:00,
2013-07-06 18:50:00,84.8,68.4,29.63,North,0,0.0,0.0,58,0.00,,,0.00,WUHU216HW,2013-07-06 22:50:00,
2013-07-06 18:55:00,84.6,68.2,29.64,North,0,0.0,0.0,58,0.00,,,0.00,WUHU216HW,2013-07-06 22:55:00,
2013-07-06 19:01:00,84.6,68.2,29.63,North,0,0.0,0.0,58,0.00,,,0.00,WUHU216HW,2013-07-06 23:01:00,
2013-07-06 19:06:00,84.4,68.0,29.64,North,0,0.0,0.0,58,0.00,,,0.00,WUHU216HW,2013-07-06 23:06:00,
2013-07-06 19:11:00,84.2,67.9,29.64,North,0,0.0,0.0,58,0.00,,,0.00,WUHU216HW,2013-07-06 23:11:00,
2013-07-06 19:16:00,84.1,67.7,29.64,North,0,0.0,0.0,58,0.00,,,0.00,WUHU216HW,2013-07-06 23:16:00,
2013-07-06 19:21:00,83.9,68.0,29.64,North,0,0.0,0.0,59,0.00,,,0.00,WUHU216HW,2013-07-06 23:21:00,
2013-07-06 19:27:00,83.7,67.9,29.64,North,0,0.0,0.0,59,0.00,,,0.00,WUHU216HW,2013-07-06 23:27:00,
2013-07-06 19:32:00,83.2,67.3,29.64,North,0,0.0,0.0,59,0.00,,,0.00,WUHU216HW,2013-07-06 23:32:00,
2013-07-06 19:37:00,82.8,67.0,29.64,North,0,0.0,0.0,59,0.00,,,0.00,WUHU216HW,2013-07-06 23:37:00,
2013-07-06 19:43:00,82.3,67.0,29.64,North,0,0.0,0.0,60,0.00,,,0.00,WUHU216HW,2013-07-06 23:43:00,
2013-07-06 19:48:00,81.5,66.8,29.64,North,0,0.0,0.0,61,0.00,,,0.00,WUHU216HW,2013-07-06 23:48:00,
2013-07-06 19:53:00,81.2,66.9,29.64,North,0,0.0,0.0,62,0.00,,,0.00,WUHU216HW,2013-07-06 23:53:00,
2013-07-06 19:59:00,80.8,66.6,29.64,North,0,0.0,0.0,62,0.00,,,0.00,WUHU216HW,2013-07-06 23:59:00,
2013-07-06 20:04:00,80.5,66.7,29.64,North,0,0.0,0.0,63,0.00,,,0.00,WUHU216HW,2013-07-07 00:04:00,
2013-07-06 20:09:00,80.1,67.2,29.64,North,0,0.0,0.0,65,0.00,,,0.00,WUHU216HW,2013-07-07 00:09:00,
2013-07-06 20:14:00,79.9,67.5,29.64,North,0,0.0,0.0,66,0.00,,,0.00,WUHU216HW,2013-07-07 00:14:00,
2013-07-06 20:20:00,79.6,67.6,29.64,North,0,0.0,0.0,67,0.00,,,0.00,WUHU216HW,2013-07-07 00:20:00,
2013-07-06 20:25:00,79.2,67.2,29.64,North,0,0.0,0.0,67,0.00,,,0.00,WUHU216HW,2013-07-07 00:25:00,
2013-07-06 20:31:00,79.0,67.5,29.64,North,0,0.0,0.0,68,0.00,,,0.00,WUHU216HW,2013-07-07 00:31:00,
2013-07-06 20:36:00,78.8,67.3,29.64,North,0,0.0,0.0,68,0.00,,,0.00,WUHU216HW,2013-07-07 00:36:00,
2013-07-06 20:41:00,78.7,67.6,29.64,North,0,0.0,0.0,69,0.00,,,0.00,WUHU216HW,2013-07-07 00:41:00,
2013-07-06 20:46:00,78.3,67.3,29.64,North,0,0.0,0.0,69,0.00,,,0.00,WUHU216HW,2013-07-07 00:46:00,
2013-07-06 20:52:00,78.1,67.2,29.64,North,0,0.0,0.0,69,0.00,,,0.00,WUHU216HW,2013-07-07 00:52:00,
2013-07-06 20:57:00,77.6,67.1,29.64,North,0,0.0,0.0,70,0.00,,,0.00,WUHU216HW,2013-07-07 00:57:00,
2013-07-06 21:03:00,77.2,66.8,29.64,North,0,0.0,0.0,70,0.00,,,0.00,WUHU216HW,2013-07-07 01:03:00,
2013-07-06 21:08:00,76.9,66.8,29.65,North,0,0.0,0.0,71,0.00,,,0.00,WUHU216HW,2013-07-07 01:08:00,
2013-07-06 21:13:00,76.7,67.0,29.65,North,0,0.0,0.0,72,0.00,,,0.00,WUHU216HW,2013-07-07 01:13:00,
2013-07-06 21:18:00,76.3,67.1,29.65,North,0,0.0,0.0,73,0.00,,,0.00,WUHU216HW,2013-07-07 01:18:00,
2013-07-06 21:23:00,76.1,66.9,29.65,North,0,0.0,0.0,73,0.00,,,0.00,WUHU216HW,2013-07-07 01:23:00,
2013-07-06 21:28:00,76.0,66.7,29.65,North,0,0.0,0.0,73,0.00,,,0.00,WUHU216HW,2013-07-07 01:28:00,
2013-07-06 21:33:00,75.4,66.6,29.65,North,0,0.0,0.0,74,0.00,,,0.00,WUHU216HW,2013-07-07 01:33:00,
2013-07-06 21:38:00,75.2,66.4,29.66,North,0,0.0,0.0,74,0.00,,,0.00,WUHU216HW,2013-07-07 01:38:00,
2013-07-06 21:43:00,75.1,66.6,29.66,North,0,0.0,0.0,75,0.00,,,0.00,WUHU216HW,2013-07-07 01:43:00,
2013-07-06 21:49:00,75.1,66.6,29.66,North,0,0.0,0.0,75,0.00,,,0.00,WUHU216HW,2013-07-07 01:49:00,
2013-07-06 21:55:00,74.9,66.4,29.66,North,0,0.0,0.0,75,0.00,,,0.00,WUHU216HW,2013-07-07 01:55:00,
2013-07-06 22:00:00,74.7,66.2,29.66,North,0,0.0,0.0,75,0.00,,,0.00,WUHU216HW,2013-07-07 02:00:00,
2013-07-06 22:05:00,74.5,66.1,29.66,North,0,0.0,0.0,75,0.00,,,0.00,WUHU216HW,2013-07-07 02:05:00,
2013-07-06 22:10:00,74.3,66.3,29.66,North,0,0.0,0.0,76,0.00,,,0.00,WUHU216HW,2013-07-07 02:10:00,
2013-07-06 22:15:00,74.2,66.5,29.67,North,0,0.0,0.0,77,0.00,,,0.00,WUHU216HW,2013-07-07 02:15:00,
2013-07-06 22:20:00,73.8,66.6,29.67,North,0,0.0,0.0,78,0.00,,,0.00,WUHU216HW,2013-07-07 02:20:00,
2013-07-06 22:25:00,73.8,67.0,29.67,North,0,0.0,0.0,79,0.00,,,0.00,WUHU216HW,2013-07-07 02:25:00,
2013-07-06 22:30:00,73.6,66.8,29.66,North,0,0.0,0.0,79,0.00,,,0.00,WUHU216HW,2013-07-07 02:30:00,
2013-07-06 22:35:00,73.4,66.6,29.66,North,0,0.0,0.0,79,0.00,,,0.00,WUHU216HW,2013-07-07 02:35:00,
2013-07-06 22:40:00,73.3,66.8,29.66,North,0,0.0,0.0,80,0.00,,,0.00,WUHU216HW,2013-07-07 02:40:00,
2013-07-06 22:46:00,73.3,66.8,29.66,North,0,0.0,0.0,80,0.00,,,0.00,WUHU216HW,2013-07-07 02:46:00,
2013-07-06 22:52:00,73.1,66.6,29.66,North,0,0.0,0.0,80,0.00,,,0.00,WUHU216HW,2013-07-07 02:52:00,
2013-07-06 22:57:00,72.9,66.4,29.66,North,0,0.0,0.0,80,0.00,,,0.00,WUHU216HW,2013-07-07 02:57:00,
2013-07-06 23:02:00,72.9,66.8,29.67,North,0,0.0,0.0,81,0.00,,,0.00,WUHU216HW,2013-07-07 03:02:00,
2013-07-06 23:07:00,72.9,66.8,29.66,North,0,0.0,0.0,81,0.00,,,0.00,WUHU216HW,2013-07-07 03:07:00,
2013-07-06 23:12:00,72.9,66.8,29.66,North,0,0.0,0.0,81,0.00,,,0.00,WUHU216HW,2013-07-07 03:12:00,
2013-07-06 23:17:00,72.7,66.6,29.66,North,0,0.0,0.0,81,0.00,,,0.00,WUHU216HW,2013-07-07 03:17:00,
2013-07-06 23:22:00,72.7,66.2,29.66,North,0,0.0,0.0,80,0.00,,,0.00,WUHU216HW,2013-07-07 03:22:00,
2013-07-06 23:27:00,72.4,66.3,29.67,North,0,0.0,0.0,81,0.00,,,0.00,WUHU216HW,2013-07-07 03:27:00,
2013-07-06 23:33:00,72.2,66.1,29.66,North,0,0.0,0.0,81,0.00,,,0.00,WUHU216HW,2013-07-07 03:33:00,
2013-07-06 23:38:00,71.8,66.1,29.66,North,0,0.0,0.0,82,0.00,,,0.00,WUHU216HW,2013-07-07 03:38:00,
2013-07-06 23:43:00,71.6,65.9,29.66,North,0,0.0,0.0,82,0.00,,,0.00,WUHU216HW,2013-07-07 03:43:00,
2013-07-06 23:49:00,71.5,66.0,29.66,North,0,0.0,0.0,83,0.00,,,0.00,WUHU216HW,2013-07-07 03:49:00,
2013-07-06 23:54:00,71.3,65.8,29.66,North,0,0.0,0.0,83,0.00,,,0.00,WUHU216HW,2013-07-07 03:54:00,
2013-07-06 23:59:00,70.9,65.4,29.66,North,0,0.0,0.0,83,0.00,,,0.00,WUHU216HW,2013-07-07 03:59:00,